Weather Roundup
Issued by NWS Springfield, MO

Home | Current Version | Previous Version | Text Only | Print | Product List | Glossary On
Versions: 1 2 3 4 5 6 7 8 9 10 11 12 13 14 15 16 17 18 19 20 21 22 23 24 25 26 27 28 29 30 31 32 33 34 35 36 37 38 39 40 41 42 43 44 45 46 47 48 49 50
000
NZUS99 KSGF 061107
HRRSGF

HOURLY WEATHER
NATIONAL WEATHER SERVICE SPRINGFIELD MO
600 AM CDT MON JUL 06 2015

......SGF CWA......

CITY           SKY/WX    TMP DP  RH WIND       PRES   REMARKS
SPRINGFIELD    PTCLDY    72  69  90 S10       29.99S
JOPLIN         MOCLDY    75  71  87 S12       29.96S
WEST PLAINS    FOG       70  68  93 SE3       30.06R VSB 1/2
ROLLA          MOCLDY    72  71  97 S12       29.99S
OSAGE BEACH    MOCLDY    72  70  94 S5        29.97S
BRANSON          N/A     72  70  94 CALM      30.03S

......SURROUNDING SGF CWA......

CITY           SKY/WX    TMP DP  RH WIND       PRES   REMARKS
CHANUTE        CLOUDY    74  71  91 S9        29.92S
PARSONS        MOCLDY    75  72  90 S6        29.94S
COFFEYVILLE    MOCLDY    74  71  91 S9        29.93R
EMPORIA        CLOUDY    74  70  87 S15       29.88S
GROVE OK       MOCLDY    75  75 100 S9        29.98S
ROGERS AR      PTCLDY    72  70  93 S7        30.03R
SILOAM SPRINGS MOCLDY    73  66  78 S8        30.03R
HARRISON AR    PTCLDY    70  69  97 SE6       30.04R
NEAR YELLVILLE PTCLDY    70  66  88 CALM      30.01R

......KANSAS AND MISSOURI......

CITY           SKY/WX    TMP DP  RH WIND       PRES   REMARKS
KANSAS CTY INT CLOUDY    74  70  87 S12       29.89R
DOWNTOWN KC    CLOUDY    76  70  82 S10       29.89R
COLUMBIA       MOCLDY    72  71  97 S7        29.97R
SEDALIA        MOCLDY    74  68  81 S10       29.96R
ST JOSEPH      CLOUDY    77  71  82 S9        29.88R
ST LOUIS       MOCLDY    74  69  85 SE8       30.00S HAZE
SPIRIT OF STL  CLEAR     72  70  93 CALM      29.98S FOG
KIRKSVILLE     CLOUDY    72  67  84 S9        29.93R
WICHITA        CLOUDY    77  69  76 S12       29.87R
TOPEKA         CLOUDY    77  72  84 S10       29.87R
OLATHE         CLOUDY    72  69  90 S10       29.90S

......TENNESSEE......

CITY           SKY/WX    TMP DP  RH WIND       PRES   REMARKS
MEMPHIS        PTCLDY    71  68  90 S8        30.10R
NASHVILLE      MOCLDY    70  70 100 CALM      30.13R

......ARKANSAS.......

CITY           SKY/WX    TMP DP  RH WIND       PRES   REMARKS
FAYETTEVILLE   CLOUDY    71  69  93 CALM      30.03R
FT SMITH       MOCLDY    73  70  90 NE3       30.00R
LITTLE ROCK    CLOUDY    70  66  87 S6        30.07R

......OKLAHOMA.......

CITY           SKY/WX    TMP DP  RH WIND       PRES   REMARKS
TULSA          CLOUDY    77  72  84 SE8       29.94R
PONCA CITY     MOCLDY    79  70  74 S9G18     29.89R
MCALESTER      PTCLDY    77  72  84 S8        29.99R
OKLAHOMA CITY  MOCLDY    75  71  87 S9        29.93R

......IOWA............

CITY           SKY/WX    TMP DP  RH WIND       PRES   REMARKS
DES MOINES     CLOUDY    78  71  79 SE6       29.83R THUNDER
QUAD CITIES    MOCLDY    72  67  84 S5        29.92S HAZE

......ILLINOIS........

CITY           SKY/WX    TMP DP  RH WIND       PRES   REMARKS
QUINCY         MOCLDY    73  70  90 S9        29.94S FOG
CHICAGO        PTCLDY    66  63  90 S6        29.98R FOG



USA.gov is the U.S. government's official web portal to all federal, state and local government web resources and services.